| time (UTC) | temp F | wind direction | speed MPH | gust MPH | rain 1hr in | rain 24hr in | rain mn in | humidity % | barometer mb |
| 20260509184125 | 76 | 335 | 3.0 | 13.0 | 0.00 | 0.00 | 0.00 | 30 | 1009.7 |
| 20260509183628 | 76 | 40 | 5.0 | 13.0 | 0.00 | 0.00 | 0.00 | 30 | 1009.6 |
| 20260509183128 | 77 | 32 | 4.0 | 10.0 | 0.00 | 0.00 | 0.00 | 29 | 1009.6 |
| 20260509182633 | 76 | 77 | 4.0 | 10.0 | 0.00 | 0.00 | 0.00 | 30 | 1009.6 |
| 20260509182134 | 76 | 79 | 3.0 | 10.0 | 0.00 | 0.00 | 0.00 | 32 | 1009.5 |
| 20260509181622 | 76 | 90 | 3.0 | 12.0 | 0.00 | 0.00 | 0.00 | 29 | 1009.4 |
| 20260509181121 | 76 | 5 | 3.0 | 12.0 | 0.00 | 0.00 | 0.00 | 30 | 1009.4 |
| 20260509180629 | 75 | 327 | 3.0 | 8.0 | 0.00 | 0.00 | 0.00 | 29 | 1009.3 |
| 20260509180131 | 75 | 58 | 4.0 | 8.0 | 0.00 | 0.00 | 0.00 | 30 | 1009.3 |
| 20260509175635 | 74 | 101 | 2.0 | 8.0 | 0.00 | 0.00 | 0.00 | 29 | 1009.4 |
| 20260509175135 | 74 | 277 | 3.0 | 6.0 | 0.00 | 0.00 | 0.00 | 31 | 1009.4 |
| 20260509174640 | 74 | 77 | 2.0 | 6.0 | 0.00 | 0.00 | 0.00 | 32 | 1009.5 |
| 20260509174117 | 74 | 346 | 3.0 | 11.0 | 0.00 | 0.00 | 0.00 | 33 | 1009.5 |
| 20260509173622 | 74 | 88 | 4.0 | 11.0 | 0.00 | 0.00 | 0.00 | 30 | 1009.6 |
| 20260509173117 | 74 | 9 | 1.0 | 7.0 | 0.00 | 0.00 | 0.00 | 32 | 1009.5 |
| 20260509172644 | 73 | 37 | 4.0 | 9.0 | 0.00 | 0.00 | 0.00 | 31 | 1009.6 |
| 20260509172121 | 73 | 14 | 4.0 | 9.0 | 0.00 | 0.00 | 0.00 | 31 | 1009.8 |
| 20260509171625 | 73 | 56 | 3.0 | 8.0 | 0.00 | 0.00 | 0.00 | 31 | 1009.7 |
| 20260509171123 | 73 | 19 | 2.0 | 6.0 | 0.00 | 0.00 | 0.00 | 33 | 1009.8 |
| 20260509170647 | 73 | 271 | 3.0 | 6.0 | 0.00 | 0.00 | 0.00 | 31 | 1009.8 |
| 20260509170142 | 73 | 210 | 2.0 | 6.0 | 0.00 | 0.00 | 0.00 | 32 | 1009.7 |
| 20260509165624 | 72 | 79 | 2.0 | 7.0 | 0.00 | 0.00 | 0.00 | 32 | 1009.7 |
| 20260509165121 | 72 | 54 | 3.0 | 8.0 | 0.00 | 0.00 | 0.00 | 33 | 1009.7 |
| 20260509164626 | 72 | 14 | 5.0 | 8.0 | 0.00 | 0.00 | 0.00 | 32 | 1009.5 |
| 20260509164146 | 72 | 9 | 2.0 | 6.0 | 0.00 | 0.00 | 0.00 | 34 | 1009.6 |
| 20260509163628 | 71 | 336 | 3.0 | 6.0 | 0.00 | 0.00 | 0.00 | 35 | 1009.6 |
| 20260509163125 | 71 | 360 | 4.0 | 10.0 | 0.00 | 0.00 | 0.00 | 34 | 1009.6 |
| 20260509162651 | 71 | 24 | 3.0 | 12.0 | 0.00 | 0.00 | 0.00 | 34 | 1009.6 |
| 20260509162131 | 71 | 76 | 4.0 | 8.0 | 0.00 | 0.00 | 0.00 | 33 | 1009.6 |
| 20260509161620 | 71 | 71 | 4.0 | 8.0 | 0.00 | 0.00 | 0.00 | 34 | 1009.5 |
| 20260509161142 | 71 | 262 | 0.0 | 10.0 | 0.00 | 0.00 | 0.00 | 35 | 1009.5 |
| 20260509160644 | 70 | 325 | 3.0 | 10.0 | 0.00 | 0.00 | 0.00 | 35 | 1009.4 |
| 20260509160147 | 70 | 63 | 3.0 | 6.0 | 0.00 | 0.00 | 0.00 | 36 | 1009.6 |
| 20260509155650 | 70 | 92 | 2.0 | 10.0 | 0.00 | 0.00 | 0.00 | 37 | 1009.6 |
| 20260509155148 | 70 | 53 | 3.0 | 10.0 | 0.00 | 0.00 | 0.00 | 36 | 1009.7 |
| 20260509154635 | 69 | 50 | 4.0 | 8.0 | 0.00 | 0.00 | 0.00 | 37 | 1010.0 |
| 20260509154132 | 69 | 291 | 3.0 | 8.0 | 0.00 | 0.00 | 0.00 | 36 | 1009.9 |
| 20260509153634 | 70 | 350 | 3.0 | 9.0 | 0.00 | 0.00 | 0.00 | 37 | 1010.0 |
| 20260509153135 | 69 | 349 | 4.0 | 10.0 | 0.00 | 0.00 | 0.00 | 37 | 1010.1 |
| 20260509152619 | 69 | 48 | 2.0 | 8.0 | 0.00 | 0.00 | 0.00 | 39 | 1010.0 |
| 20260509152116 | 68 | 317 | 2.0 | 9.0 | 0.00 | 0.00 | 0.00 | 39 | 1010.0 |
| 20260509151620 | 68 | 353 | 4.0 | 10.0 | 0.00 | 0.00 | 0.00 | 40 | 1010.0 |
| 20260509151121 | 68 | 262 | 6.0 | 11.0 | 0.00 | 0.00 | 0.00 | 40 | 1009.9 |
| 20260509150647 | 69 | 300 | 6.0 | 11.0 | 0.00 | 0.00 | 0.00 | 39 | 1009.7 |
| 20260509150123 | 69 | 111 | 4.0 | 9.0 | 0.00 | 0.00 | 0.00 | 40 | 1009.8 |
| 20260509145650 | 69 | 56 | 6.0 | 11.0 | 0.00 | 0.00 | 0.00 | 38 | 1009.5 |
| 20260509145128 | 68 | 49 | 3.0 | 11.0 | 0.00 | 0.00 | 0.00 | 41 | 1009.6 |
| 20260509144632 | 68 | 258 | 3.0 | 9.0 | 0.00 | 0.00 | 0.00 | 40 | 1008.8 |
| 20260509144133 | 67 | 311 | 6.0 | 9.0 | 0.00 | 0.00 | 0.00 | 42 | 1008.6 |
| 20260509143617 | 66 | 248 | 2.0 | 7.0 | 0.00 | 0.00 | 0.00 | 44 | 1008.6 |
| 20260509143116 | 66 | 242 | 4.0 | 7.0 | 0.00 | 0.00 | 0.00 | 43 | 1008.7 |
| 20260509142624 | 65 | 260 | 4.0 | 7.0 | 0.00 | 0.00 | 0.00 | 45 | 1008.7 |
| 20260509142121 | 65 | 265 | 2.0 | 6.0 | 0.00 | 0.00 | 0.00 | 47 | 1008.8 |
| 20260509141624 | 64 | 239 | 2.0 | 7.0 | 0.00 | 0.00 | 0.00 | 48 | 1008.9 |
| 20260509141122 | 63 | 225 | 4.0 | 7.0 | 0.00 | 0.00 | 0.00 | 49 | 1008.8 |
| 20260509140645 | 62 | 237 | 2.0 | 5.0 | 0.00 | 0.00 | 0.00 | 52 | 1008.8 |
| 20260509140125 | 61 | 229 | 2.0 | 4.0 | 0.00 | 0.00 | 0.00 | 53 | 1008.9 |
| 20260509135627 | 61 | 282 | 1.0 | 5.0 | 0.00 | 0.00 | 0.00 | 54 | 1008.9 |
| 20260509135128 | 60 | 225 | 3.0 | 5.0 | 0.00 | 0.00 | 0.00 | 55 | 1008.9 |
| 20260509134618 | 59 | 198 | 1.0 | 3.0 | 0.00 | 0.00 | 0.00 | 55 | 1008.7 |
| 20260509134132 | 59 | 233 | 2.0 | 5.0 | 0.00 | 0.00 | 0.00 | 57 | 1008.8 |
| 20260509133623 | 58 | 207 | 2.0 | 5.0 | 0.00 | 0.00 | 0.00 | 57 | 1008.8 |
| 20260509133125 | 58 | 239 | 2.0 | 4.0 | 0.00 | 0.00 | 0.00 | 58 | 1008.9 |
| 20260509132629 | 57 | 233 | 2.0 | 3.0 | 0.00 | 0.00 | 0.00 | 59 | 1008.7 |
| 20260509132126 | 56 | 229 | 1.0 | 3.0 | 0.00 | 0.00 | 0.00 | 60 | 1008.8 |
| 20260509131635 | 56 | 257 | 1.0 | 3.0 | 0.00 | 0.00 | 0.00 | 60 | 1008.8 |
| 20260509131137 | 55 | 229 | 1.0 | 3.0 | 0.00 | 0.00 | 0.00 | 61 | 1008.8 |
| 20260509130623 | 55 | 230 | 3.0 | 3.0 | 0.00 | 0.00 | 0.00 | 62 | 1008.8 |
| 20260509130123 | 54 | 57 | 1.0 | 2.0 | 0.00 | 0.00 | 0.00 | 64 | 1008.7 |
| 20260509125626 | 53 | 57 | 0.0 | 3.0 | 0.00 | 0.00 | 0.00 | 66 | 1008.8 |
| 20260509125128 | 52 | 57 | 1.0 | 3.0 | 0.00 | 0.00 | 0.00 | 67 | 1008.8 |
| 20260509124632 | 52 | 57 | 1.0 | 2.0 | 0.00 | 0.00 | 0.00 | 67 | 1008.8 |
| 20260509124128 | 51 | 57 | 1.0 | 2.0 | 0.00 | 0.00 | 0.00 | 69 | 1008.8 |
| 20260509123633 | 50 | 57 | 0.0 | 2.0 | 0.00 | 0.00 | 0.00 | 70 | 1008.8 |
| 20260509123132 | 50 | 57 | 1.0 | 2.0 | 0.00 | 0.00 | 0.00 | 72 | 1008.8 |
| 20260509122623 | 49 | 57 | 0.0 | 2.0 | 0.00 | 0.00 | 0.00 | 74 | 1008.7 |
| 20260509122124 | 48 | 57 | 0.0 | 2.0 | 0.00 | 0.00 | 0.00 | 75 | 1008.7 |
| 20260509121627 | 47 | 57 | 0.0 | 1.0 | 0.00 | 0.00 | 0.00 | 76 | 1008.7 |
| 20260509121143 | 47 | 57 | 0.0 | 0.0 | 0.00 | 0.00 | 0.00 | 78 | 1008.7 |
| 20260509120626 | 47 | 57 | 0.0 | 0.0 | 0.00 | 0.00 | 0.00 | 78 | 1008.7 |
| 20260509120125 | 47 | 57 | 0.0 | 0.0 | 0.00 | 0.00 | 0.00 | 77 | 1008.5 |
| 20260509115630 | 47 | 57 | 0.0 | 0.0 | 0.00 | 0.00 | 0.00 | 77 | 1008.5 |
| 20260509115133 | 47 | 57 | 0.0 | 0.0 | 0.00 | 0.00 | 0.00 | 76 | 1008.4 |
| 20260509114617 | 47 | 57 | 0.0 | 0.0 | 0.00 | 0.00 | 0.00 | 76 | 1008.3 |
| 20260509114134 | 47 | 57 | 0.0 | 0.0 | 0.00 | 0.00 | 0.00 | 76 | 1008.3 |
| 20260509113620 | 47 | 57 | 0.0 | 0.0 | 0.00 | 0.00 | 0.00 | 76 | 1008.3 |
| 20260509113119 | 46 | 57 | 0.0 | 0.0 | 0.00 | 0.00 | 0.00 | 76 | 1008.3 |
| 20260509112647 | 46 | 57 | 0.0 | 0.0 | 0.00 | 0.00 | 0.00 | 76 | 1008.2 |
| 20260509112127 | 46 | 57 | 0.0 | 0.0 | 0.00 | 0.00 | 0.00 | 76 | 1008.2 |
| 20260509111652 | 46 | 57 | 0.0 | 0.0 | 0.00 | 0.00 | 0.00 | 76 | 1008.2 |
| 20260509111131 | 46 | 57 | 0.0 | 0.0 | 0.00 | 0.00 | 0.00 | 76 | 1008.1 |
| 20260509110618 | 46 | 57 | 0.0 | 0.0 | 0.00 | 0.00 | 0.00 | 76 | 1008.1 |
| 20260509110117 | 46 | 57 | 0.0 | 0.0 | 0.00 | 0.00 | 0.00 | 76 | 1008.1 |
| 20260509105622 | 46 | 57 | 0.0 | 0.0 | 0.00 | 0.00 | 0.00 | 76 | 1008.0 |
| 20260509105125 | 46 | 57 | 0.0 | 0.0 | 0.00 | 0.00 | 0.00 | 75 | 1008.1 |
| 20260509104632 | 47 | 57 | 0.0 | 0.0 | 0.00 | 0.00 | 0.00 | 75 | 1008.1 |
| 20260509104115 | 47 | 57 | 0.0 | 0.0 | 0.00 | 0.00 | 0.00 | 75 | 1008.1 |
| 20260509103625 | 47 | 57 | 0.0 | 0.0 | 0.00 | 0.00 | 0.00 | 75 | 1008.1 |
| 20260509103122 | 47 | 57 | 0.0 | 0.0 | 0.00 | 0.00 | 0.00 | 75 | 1008.2 |
| 20260509102625 | 47 | 57 | 0.0 | 0.0 | 0.00 | 0.00 | 0.00 | 75 | 1008.1 |
| 20260509102121 | 47 | 57 | 0.0 | 0.0 | 0.00 | 0.00 | 0.00 | 74 | 1008.1 |
| 20260509101628 | 47 | 57 | 0.0 | 0.0 | 0.00 | 0.00 | 0.00 | 73 | 1008.1 |
| 20260509101125 | 47 | 57 | 0.0 | 0.0 | 0.00 | 0.00 | 0.00 | 73 | 1008.1 |
| 20260509100650 | 47 | 57 | 0.0 | 0.0 | 0.00 | 0.00 | 0.00 | 73 | 1008.1 |
| 20260509100128 | 47 | 57 | 0.0 | 0.0 | 0.00 | 0.00 | 0.00 | 73 | 1008.2 |
| 20260509095632 | 47 | 57 | 0.0 | 1.0 | 0.00 | 0.00 | 0.00 | 73 | 1008.2 |
| 20260509095134 | 47 | 57 | 0.0 | 1.0 | 0.00 | 0.00 | 0.00 | 73 | 1008.1 |
| 20260509094658 | 48 | 57 | 0.0 | 0.0 | 0.00 | 0.00 | 0.00 | 72 | 1008.2 |
| 20260509094120 | 48 | 57 | 0.0 | 0.0 | 0.00 | 0.00 | 0.00 | 71 | 1008.2 |
| 20260509093627 | 48 | 57 | 0.0 | 0.0 | 0.00 | 0.00 | 0.00 | 70 | 1008.1 |
| 20260509093125 | 48 | 57 | 0.0 | 0.0 | 0.00 | 0.00 | 0.00 | 70 | 1008.1 |
| 20260509092648 | 48 | 57 | 0.0 | 0.0 | 0.00 | 0.00 | 0.00 | 69 | 1008.0 |
| 20260509092126 | 48 | 57 | 0.0 | 0.0 | 0.00 | 0.00 | 0.00 | 69 | 1008.0 |
| 20260509091633 | 48 | 57 | 0.0 | 0.0 | 0.00 | 0.00 | 0.00 | 70 | 1008.0 |
| 20260509091132 | 48 | 57 | 0.0 | 0.0 | 0.00 | 0.00 | 0.00 | 69 | 1008.1 |
| 20260509090619 | 49 | 57 | 0.0 | 0.0 | 0.00 | 0.00 | 0.00 | 68 | 1008.1 |
| 20260509090142 | 49 | 57 | 0.0 | 0.0 | 0.00 | 0.00 | 0.00 | 68 | 1008.0 |
| 20260509085628 | 49 | 57 | 0.0 | 0.0 | 0.00 | 0.00 | 0.00 | 66 | 1008.0 |
| 20260509085127 | 50 | 57 | 0.0 | 0.0 | 0.00 | 0.00 | 0.00 | 66 | 1008.0 |
| 20260509084633 | 50 | 57 | 0.0 | 0.0 | 0.00 | 0.00 | 0.00 | 65 | 1007.8 |
| 20260509084134 | 50 | 57 | 0.0 | 1.0 | 0.00 | 0.00 | 0.00 | 65 | 1007.8 |
| 20260509083619 | 50 | 57 | 0.0 | 1.0 | 0.00 | 0.00 | 0.00 | 66 | 1007.9 |
| 20260509083117 | 50 | 57 | 0.0 | 0.0 | 0.00 | 0.00 | 0.00 | 65 | 1007.9 |
| 20260509082625 | 51 | 57 | 0.0 | 0.0 | 0.00 | 0.00 | 0.00 | 64 | 1007.9 |
| 20260509082143 | 51 | 57 | 0.0 | 0.0 | 0.00 | 0.00 | 0.00 | 64 | 1007.9 |
| 20260509081626 | 51 | 57 | 0.0 | 0.0 | 0.00 | 0.00 | 0.00 | 63 | 1007.9 |
| 20260509081126 | 51 | 57 | 0.0 | 0.0 | 0.00 | 0.00 | 0.00 | 63 | 1007.8 |
| 20260509080655 | 52 | 57 | 0.0 | 0.0 | 0.00 | 0.00 | 0.00 | 62 | 1007.9 |
| 20260509080132 | 52 | 57 | 0.0 | 2.0 | 0.00 | 0.00 | 0.00 | 62 | 1007.8 |
| 20260509075620 | 52 | 57 | 0.0 | 2.0 | 0.00 | 0.00 | 0.00 | 61 | 1007.9 |
| 20260509075119 | 53 | 57 | 0.0 | 0.0 | 0.00 | 0.00 | 0.00 | 61 | 1007.9 |
| 20260509074622 | 53 | 57 | 0.0 | 0.0 | 0.00 | 0.00 | 0.00 | 59 | 1007.9 |
| 20260509074119 | 53 | 57 | 0.0 | 0.0 | 0.00 | 0.00 | 0.00 | 58 | 1007.9 |
| 20260509073627 | 54 | 57 | 0.0 | 0.0 | 0.00 | 0.00 | 0.00 | 57 | 1007.8 |
| 20260509073127 | 54 | 57 | 0.0 | 0.0 | 0.00 | 0.00 | 0.00 | 56 | 1007.9 |
| 20260509072633 | 55 | 57 | 0.0 | 0.0 | 0.00 | 0.00 | 0.00 | 55 | 1007.9 |
| 20260509072134 | 55 | 57 | 0.0 | 1.0 | 0.00 | 0.00 | 0.00 | 54 | 1007.9 |
| 20260509071617 | 56 | 57 | 0.0 | 1.0 | 0.00 | 0.00 | 0.00 | 53 | 1007.9 |
| 20260509071137 | 56 | 57 | 0.0 | 0.0 | 0.00 | 0.00 | 0.00 | 52 | 1007.9 |
| 20260509070624 | 57 | 57 | 0.0 | 0.0 | 0.00 | 0.00 | 0.00 | 50 | 1008.0 |
| 20260509070125 | 58 | 57 | 0.0 | 0.0 | 0.00 | 0.00 | 0.00 | 49 | 1008.0 |
| 20260509065633 | 58 | 57 | 0.0 | 1.0 | 0.00 | 0.00 | 0.00 | 48 | 1008.0 |
| 20260509065150 | 59 | 57 | 0.0 | 1.0 | 0.00 | 0.00 | 0.00 | 48 | 1008.0 |
| 20260509064634 | 59 | 57 | 0.0 | 2.0 | 0.00 | 0.00 | 0.00 | 46 | 1008.0 |
| 20260509064132 | 60 | 57 | 0.0 | 2.0 | 0.00 | 0.00 | 0.00 | 46 | 1008.0 |
| 20260509063619 | 60 | 92 | 1.0 | 2.0 | 0.00 | 0.00 | 0.00 | 45 | 1008.1 |
| 20260509063119 | 60 | 89 | 0.0 | 2.0 | 0.00 | 0.00 | 0.00 | 44 | 1008.0 |
| 20260509062624 | 61 | 89 | 0.0 | 3.0 | 0.00 | 0.00 | 0.00 | 44 | 1008.1 |
| 20260509062121 | 61 | 89 | 0.0 | 3.0 | 0.00 | 0.00 | 0.00 | 43 | 1008.0 |
| 20260509061625 | 61 | 44 | 0.0 | 3.0 | 0.00 | 0.00 | 0.00 | 43 | 1008.1 |
| 20260509061125 | 61 | 341 | 0.0 | 3.0 | 0.00 | 0.00 | 0.00 | 43 | 1008.0 |
| 20260509060632 | 61 | 9 | 0.0 | 2.0 | 0.00 | 0.00 | 0.00 | 42 | 1008.1 |
| 20260509060151 | 62 | 29 | 0.0 | 2.0 | 0.00 | 0.00 | 0.00 | 42 | 1008.1 |
| 20260509055633 | 62 | 9 | 1.0 | 4.0 | 0.00 | 0.00 | 0.00 | 42 | 1008.1 |
| 20260509055148 | 62 | 354 | 2.0 | 4.0 | 0.00 | 0.00 | 0.00 | 42 | 1008.0 |
| 20260509054652 | 62 | 332 | 0.0 | 3.0 | 0.00 | 0.00 | 0.00 | 42 | 1008.0 |
| 20260509054152 | 62 | 249 | 1.0 | 6.0 | 0.00 | 0.00 | 0.00 | 41 | 1008.0 |
| 20260509053634 | 63 | 312 | 1.0 | 6.0 | 0.00 | 0.00 | 0.00 | 41 | 1007.9 |
| 20260509053114 | 63 | 270 | 2.0 | 4.0 | 0.00 | 0.00 | 0.00 | 41 | 1008.0 |
| 20260509052622 | 63 | 322 | 2.0 | 4.0 | 0.00 | 0.00 | 0.00 | 41 | 1007.9 |
| 20260509052143 | 63 | 332 | 2.0 | 4.0 | 0.00 | 0.00 | 0.00 | 40 | 1007.8 |
| 20260509051629 | 64 | 327 | 1.0 | 6.0 | 0.00 | 0.00 | 0.00 | 40 | 1007.8 |
| 20260509051132 | 64 | 312 | 1.0 | 6.0 | 0.00 | 0.00 | 0.00 | 39 | 1007.8 |
| 20260509050628 | 64 | 2 | 2.0 | 6.0 | 0.00 | 0.00 | 0.00 | 39 | 1007.8 |
| 20260509050133 | 64 | 329 | 2.0 | 6.0 | 0.00 | 0.00 | 0.00 | 39 | 1007.7 |
| 20260509045626 | 64 | 327 | 1.0 | 4.0 | 0.00 | 0.00 | 0.00 | 39 | 1007.7 |
| 20260509045127 | 64 | 300 | 1.0 | 5.0 | 0.00 | 0.00 | 0.00 | 38 | 1007.7 |
| 20260509044629 | 65 | 216 | 1.0 | 5.0 | 0.00 | 0.00 | 0.00 | 38 | 1007.7 |
| 20260509044131 | 64 | 310 | 3.0 | 5.0 | 0.00 | 0.00 | 0.00 | 38 | 1007.7 |
| 20260509043655 | 64 | 312 | 2.0 | 4.0 | 0.00 | 0.00 | 0.00 | 39 | 1007.6 |
| 20260509043133 | 63 | 325 | 2.0 | 4.0 | 0.00 | 0.00 | 0.00 | 39 | 1007.6 |
| 20260509042624 | 63 | 305 | 0.0 | 2.0 | 0.00 | 0.00 | 0.00 | 40 | 1007.5 |
| 20260509042125 | 62 | 300 | 1.0 | 2.0 | 0.00 | 0.00 | 0.00 | 40 | 1007.6 |
| 20260509041630 | 62 | 297 | 0.0 | 1.0 | 0.00 | 0.00 | 0.00 | 41 | 1007.6 |
| 20260509041127 | 62 | 313 | 0.0 | 2.0 | 0.00 | 0.00 | 0.00 | 41 | 1007.6 |
| 20260509040629 | 62 | 312 | 0.0 | 2.0 | 0.00 | 0.00 | 0.00 | 40 | 1007.6 |
| 20260509040132 | 61 | 289 | 0.0 | 1.0 | 0.00 | 0.00 | 0.00 | 41 | 1007.6 |
| 20260509035641 | 61 | 289 | 0.0 | 1.0 | 0.00 | 0.00 | 0.00 | 42 | 1007.6 |
| 20260509035120 | 61 | 289 | 0.0 | 1.0 | 0.00 | 0.00 | 0.00 | 43 | 1007.6 |
| 20260509034625 | 62 | 289 | 0.0 | 0.0 | 0.00 | 0.00 | 0.00 | 43 | 1007.5 |
| 20260509034125 | 62 | 289 | 0.0 | 0.0 | 0.00 | 0.00 | 0.00 | 43 | 1007.5 |
| 20260509033649 | 62 | 289 | 0.0 | 0.0 | 0.00 | 0.00 | 0.00 | 43 | 1007.5 |
| 20260509033146 | 62 | 289 | 0.0 | 0.0 | 0.00 | 0.00 | 0.00 | 43 | 1007.4 |
| 20260509032623 | 63 | 289 | 0.0 | 0.0 | 0.00 | 0.00 | 0.00 | 43 | 1007.4 |
| 20260509032121 | 63 | 289 | 0.0 | 1.0 | 0.00 | 0.00 | 0.00 | 43 | 1007.4 |
| 20260509031625 | 64 | 289 | 0.0 | 1.0 | 0.00 | 0.00 | 0.00 | 41 | 1007.4 |
| 20260509031127 | 64 | 289 | 0.0 | 0.0 | 0.00 | 0.00 | 0.00 | 41 | 1007.3 |
| 20260509030651 | 64 | 289 | 0.0 | 1.0 | 0.00 | 0.00 | 0.00 | 40 | 1007.3 |
| 20260509030133 | 64 | 289 | 1.0 | 1.0 | 0.00 | 0.00 | 0.00 | 39 | 1007.2 |
| 20260509025635 | 64 | 289 | 0.0 | 2.0 | 0.00 | 0.00 | 0.00 | 39 | 1007.1 |
| 20260509025115 | 64 | 289 | 0.0 | 2.0 | 0.00 | 0.00 | 0.00 | 40 | 1007.0 |
| 20260509024621 | 65 | 313 | 1.0 | 1.0 | 0.00 | 0.00 | 0.00 | 39 | 1007.1 |
| 20260509024118 | 65 | 293 | 0.0 | 0.0 | 0.00 | 0.00 | 0.00 | 39 | 1006.9 |
| 20260509023647 | 65 | 293 | 0.0 | 0.0 | 0.00 | 0.00 | 0.00 | 39 | 1006.9 |
| 20260509023126 | 66 | 293 | 0.0 | 0.0 | 0.00 | 0.00 | 0.00 | 38 | 1006.7 |
| 20260509022631 | 67 | 293 | 0.0 | 0.0 | 0.00 | 0.00 | 0.00 | 37 | 1006.6 |
| 20260509022128 | 67 | 293 | 0.0 | 0.0 | 0.00 | 0.00 | 0.00 | 36 | 1006.6 |
| 20260509021631 | 68 | 293 | 0.0 | 0.0 | 0.00 | 0.00 | 0.00 | 35 | 1006.5 |
| 20260509021131 | 69 | 293 | 0.0 | 0.0 | 0.00 | 0.00 | 0.00 | 34 | 1006.4 |
| 20260509020635 | 70 | 293 | 0.0 | 0.0 | 0.00 | 0.00 | 0.00 | 32 | 1006.3 |
| 20260509020134 | 70 | 293 | 0.0 | 0.0 | 0.00 | 0.00 | 0.00 | 31 | 1006.3 |
| 20260509015624 | 71 | 293 | 0.0 | 2.0 | 0.00 | 0.00 | 0.00 | 30 | 1006.2 |
| 20260509015121 | 71 | 293 | 0.0 | 2.0 | 0.00 | 0.00 | 0.00 | 29 | 1006.2 |
| 20260509014625 | 72 | 311 | 1.0 | 2.0 | 0.00 | 0.00 | 0.00 | 29 | 1006.2 |
| 20260509014146 | 72 | 285 | 0.0 | 6.0 | 0.00 | 0.00 | 0.00 | 29 | 1006.2 |
| 20260509013631 | 72 | 268 | 0.0 | 6.0 | 0.00 | 0.00 | 0.00 | 29 | 1006.1 |
| 20260509013149 | 73 | 306 | 1.0 | 3.0 | 0.00 | 0.00 | 0.00 | 29 | 1006.1 |
| 20260509012632 | 73 | 316 | 1.0 | 7.0 | 0.00 | 0.00 | 0.00 | 29 | 1006.0 |
| 20260509012131 | 74 | 300 | 2.0 | 7.0 | 0.00 | 0.00 | 0.00 | 29 | 1006.0 |
| 20260509011634 | 74 | 253 | 2.0 | 5.0 | 0.00 | 0.00 | 0.00 | 28 | 1005.9 |
| 20260509011116 | 74 | 286 | 1.0 | 6.0 | 0.00 | 0.00 | 0.00 | 28 | 1005.9 |
| 20260509010624 | 75 | 309 | 3.0 | 7.0 | 0.00 | 0.00 | 0.00 | 28 | 1005.9 |
| 20260509010126 | 75 | 261 | 1.0 | 7.0 | 0.00 | 0.00 | 0.00 | 28 | 1005.9 |
| 20260509005633 | 75 | 286 | 1.0 | 5.0 | 0.00 | 0.00 | 0.00 | 28 | 1005.8 |
| 20260509005132 | 76 | 297 | 1.0 | 10.0 | 0.00 | 0.00 | 0.00 | 28 | 1005.8 |
| 20260509004656 | 76 | 263 | 1.0 | 10.0 | 0.00 | 0.00 | 0.00 | 29 | 1005.8 |
| 20260509004132 | 76 | 212 | 1.0 | 8.0 | 0.00 | 0.00 | 0.00 | 28 | 1005.7 |
| 20260509003635 | 76 | 217 | 3.0 | 8.0 | 0.00 | 0.00 | 0.00 | 30 | 1005.7 |
| 20260509003133 | 76 | 254 | 3.0 | 7.0 | 0.00 | 0.00 | 0.00 | 31 | 1005.7 |
| 20260509002620 | 76 | 267 | 2.0 | 11.0 | 0.00 | 0.00 | 0.00 | 31 | 1005.7 |
| 20260509002139 | 76 | 201 | 3.0 | 11.0 | 0.00 | 0.00 | 0.00 | 32 | 1005.6 |
| 20260509001645 | 76 | 267 | 2.0 | 4.0 | 0.00 | 0.00 | 0.00 | 33 | 1005.6 |
| 20260509001121 | 76 | 200 | 2.0 | 5.0 | 0.00 | 0.00 | 0.00 | 33 | 1005.6 |
| 20260509000628 | 75 | 260 | 1.0 | 6.0 | 0.00 | 0.00 | 0.00 | 33 | 1005.6 |
| 20260509000125 | 75 | 272 | 2.0 | 5.0 | 0.00 | 0.00 | 0.00 | 33 | 1005.7 |
| 20260508235648 | 75 | 317 | 4.0 | 5.0 | 0.00 | 0.00 | 0.00 | 33 | 1005.6 |
| 20260508235127 | 75 | 239 | 2.0 | 4.0 | 0.00 | 0.00 | 0.00 | 33 | 1005.7 |
| 20260508234618 | 75 | 280 | 2.0 | 4.0 | 0.00 | 0.00 | 0.00 | 33 | 1005.7 |
| 20260508234120 | 75 | 229 | 2.0 | 4.0 | 0.00 | 0.00 | 0.00 | 33 | 1005.7 |
| 20260508233626 | 75 | 240 | 2.0 | 4.0 | 0.00 | 0.00 | 0.00 | 32 | 1005.8 |
| 20260508233144 | 75 | 227 | 2.0 | 4.0 | 0.00 | 0.00 | 0.00 | 32 | 1005.8 |
| 20260508232627 | 75 | 252 | 1.0 | 3.0 | 0.00 | 0.00 | 0.00 | 33 | 1005.8 |
| 20260508232128 | 75 | 248 | 0.0 | 8.0 | 0.00 | 0.00 | 0.00 | 33 | 1005.8 |
| 20260508231632 | 75 | 278 | 3.0 | 8.0 | 0.00 | 0.00 | 0.00 | 31 | 1005.8 |
| 20260508231133 | 75 | 271 | 3.0 | 8.0 | 0.00 | 0.00 | 0.00 | 32 | 1005.8 |
| 20260508230621 | 75 | 273 | 2.0 | 6.0 | 0.00 | 0.00 | 0.00 | 32 | 1005.8 |
| 20260508230124 | 75 | 283 | 2.0 | 10.0 | 0.00 | 0.00 | 0.00 | 32 | 1005.8 |
| 20260508225631 | 75 | 65 | 2.0 | 10.0 | 0.00 | 0.00 | 0.00 | 31 | 1005.9 |
| 20260508225129 | 75 | 293 | 4.0 | 8.0 | 0.00 | 0.00 | 0.00 | 32 | 1006.0 |
| 20260508224652 | 75 | 260 | 1.0 | 7.0 | 0.00 | 0.00 | 0.00 | 32 | 1005.9 |
| 20260508224128 | 76 | 273 | 3.0 | 6.0 | 0.00 | 0.00 | 0.00 | 32 | 1006.0 |
| 20260508223633 | 76 | 222 | 4.0 | 7.0 | 0.00 | 0.00 | 0.00 | 32 | 1006.0 |
| 20260508223129 | 76 | 243 | 4.0 | 7.0 | 0.00 | 0.00 | 0.00 | 31 | 1006.1 |
| 20260508222654 | 75 | 248 | 4.0 | 11.0 | 0.00 | 0.00 | 0.00 | 31 | 1006.2 |
| 20260508222132 | 76 | 294 | 4.0 | 11.0 | 0.00 | 0.00 | 0.00 | 31 | 1006.2 |
| 20260508221622 | 76 | 306 | 4.0 | 9.0 | 0.00 | 0.00 | 0.00 | 31 | 1006.1 |
| 20260508221120 | 77 | 241 | 2.0 | 6.0 | 0.00 | 0.00 | 0.00 | 31 | 1006.0 |
| 20260508220628 | 77 | 258 | 2.0 | 9.0 | 0.00 | 0.00 | 0.00 | 30 | 1006.2 |
| 20260508220127 | 78 | 200 | 4.0 | 9.0 | 0.00 | 0.00 | 0.00 | 31 | 1006.2 |
| 20260508215633 | 78 | 292 | 4.0 | 7.0 | 0.00 | 0.00 | 0.00 | 30 | 1006.2 |
| 20260508215155 | 77 | 249 | 2.0 | 7.0 | 0.00 | 0.00 | 0.00 | 30 | 1006.2 |
| 20260508214619 | 77 | 193 | 4.0 | 8.0 | 0.00 | 0.00 | 0.00 | 30 | 1006.3 |
| 20260508214136 | 77 | 268 | 3.0 | 8.0 | 0.00 | 0.00 | 0.00 | 31 | 1006.4 |
| 20260508213624 | 77 | 227 | 2.0 | 11.0 | 0.00 | 0.00 | 0.00 | 30 | 1006.4 |
| 20260508213120 | 78 | 277 | 3.0 | 11.0 | 0.00 | 0.00 | 0.00 | 28 | 1006.5 |
| 20260508212624 | 79 | 263 | 2.0 | 9.0 | 0.00 | 0.00 | 0.00 | 29 | 1006.5 |
| 20260508212122 | 79 | 242 | 4.0 | 9.0 | 0.00 | 0.00 | 0.00 | 29 | 1006.5 |
| 20260508211627 | 78 | 262 | 5.0 | 10.0 | 0.00 | 0.00 | 0.00 | 30 | 1006.7 |
| 20260508211133 | 78 | 225 | 5.0 | 10.0 | 0.00 | 0.00 | 0.00 | 29 | 1006.7 |
| 20260508210644 | 77 | 231 | 2.0 | 9.0 | 0.00 | 0.00 | 0.00 | 30 | 1006.8 |
| 20260508210128 | 76 | 257 | 4.0 | 12.0 | 0.00 | 0.00 | 0.00 | 30 | 1006.9 |
| 20260508205635 | 77 | 237 | 4.0 | 12.0 | 0.00 | 0.00 | 0.00 | 29 | 1006.8 |
| 20260508205134 | 77 | 209 | 4.0 | 13.0 | 0.00 | 0.00 | 0.00 | 29 | 1006.9 |
| 20260508204624 | 77 | 229 | 3.0 | 13.0 | 0.00 | 0.00 | 0.00 | 29 | 1007.1 |
| 20260508204124 | 77 | 204 | 3.0 | 9.0 | 0.00 | 0.00 | 0.00 | 31 | 1007.1 |
| 20260508203632 | 77 | 224 | 2.0 | 7.0 | 0.00 | 0.00 | 0.00 | 29 | 1007.3 |
| 20260508203133 | 77 | 350 | 2.0 | 7.0 | 0.00 | 0.00 | 0.00 | 28 | 1007.4 |
| 20260508202621 | 77 | 323 | 1.0 | 11.0 | 0.00 | 0.00 | 0.00 | 28 | 1007.4 |
| 20260508202119 | 77 | 259 | 4.0 | 11.0 | 0.00 | 0.00 | 0.00 | 29 | 1007.5 |
| 20260508201627 | 76 | 289 | 4.0 | 6.0 | 0.00 | 0.00 | 0.00 | 30 | 1007.6 |
| 20260508201127 | 76 | 264 | 2.0 | 11.0 | 0.00 | 0.00 | 0.00 | 30 | 1007.7 |
| 20260508200631 | 76 | 204 | 6.0 | 9.0 | 0.00 | 0.00 | 0.00 | 30 | 1007.8 |
| 20260508200115 | 76 | 146 | 1.0 | 5.0 | 0.00 | 0.00 | 0.00 | 29 | 1007.9 |
| 20260508195625 | 77 | 182 | 1.0 | 5.0 | 0.00 | 0.00 | 0.00 | 29 | 1008.0 |
| 20260508195140 | 77 | 63 | 1.0 | 5.0 | 0.00 | 0.00 | 0.00 | 30 | 1008.0 |
| 20260508194627 | 77 | 312 | 2.0 | 6.0 | 0.00 | 0.00 | 0.00 | 29 | 1008.0 |
| 20260508194126 | 76 | 170 | 1.0 | 6.0 | 0.00 | 0.00 | 0.00 | 30 | 1008.0 |
| 20260508193633 | 76 | 53 | 2.0 | 6.0 | 0.00 | 0.00 | 0.00 | 29 | 1008.2 |
| 20260508193134 | 76 | 73 | 2.0 | 5.0 | 0.00 | 0.00 | 0.00 | 30 | 1008.2 |
| 20260508192620 | 76 | 248 | 2.0 | 6.0 | 0.00 | 0.00 | 0.00 | 30 | 1008.3 |
| 20260508192118 | 75 | 19 | 2.0 | 6.0 | 0.00 | 0.00 | 0.00 | 30 | 1008.4 |
| 20260508191624 | 75 | 181 | 1.0 | 8.0 | 0.00 | 0.00 | 0.00 | 30 | 1008.4 |
| 20260508191140 | 76 | 357 | 1.0 | 5.0 | 0.00 | 0.00 | 0.00 | 29 | 1008.5 |
| 20260508190643 | 76 | 335 | 2.0 | 7.0 | 0.00 | 0.00 | 0.00 | 28 | 1008.5 |
| 20260508190125 | 75 | 24 | 2.0 | 8.0 | 0.00 | 0.00 | 0.00 | 30 | 1008.6 |
| 20260508185627 | 76 | 250 | 3.0 | 8.0 | 0.00 | 0.00 | 0.00 | 30 | 1008.6 |
| 20260508185127 | 75 | 210 | 2.0 | 8.0 | 0.00 | 0.00 | 0.00 | 31 | 1008.6 |
| 20260508184631 | 74 | 213 | 4.0 | 8.0 | 0.00 | 0.00 | 0.00 | 30 | 1008.6 |